COSMOS 798

Satellite information

Favourite Embed

Satellite Type and Status

PAYLOADIN ORBIT

Key statistics

Satellite COSMOS 798 at a glance.

Uptime

18174

Days in orbit

Revolutions

≈ 12.4

Per day

Orbit

LEO

Low Earth Orbit

Inclination

74.1

Latest

Satellite identification and parameters

Extended collection of information and parameters for COSMOS 798.

Object identification

Identified? True

Debris? False

Object name: COSMOS 798

International designator: 1976-008H

Object number (NORAD): 8614

Object ID (CCSDS): 8614

Country: COMMONWEALTH OF INDEPENDENT STATES (CIS)

Current information (Y/N): Y

RCS size: MEDIUM

Orbital parameters

Period: 116.34 minutes

Inclination: 74.0517 deg

SMA: 7894.266 km

Apoapsis: 1553.531 km

Periapsis: 1478.731 km

RAAN: 134.3311 deg

Eccentricy: 0.0047376

Argument of periapsis: 140.0589 deg

Mean anomaly: 33.6297 deg

Mean motion: 12.37756226 rev/day

Mean motion (dot): -0.00000003 rev/day2

B* drag term: 0.000091179089 1/REarth

Two-line elements (TLE)

Creation date: Oct. 30, 2025, 10:34 a.m.

Reference frame: TEME

Reference center: EARTH

Epoch: Oct. 30, 2025, 6:42 a.m. UTC

TLE line 0: 0 COSMOS 798

TLE line 1: 1 08614U 76008H 25303.27978178 -.00000003 00000-0 91179-4 0 9997

TLE line 2: 2 08614 74.0517 134.3311 0047376 140.0589 33.6297 12.37756226248134

Live tracking on map

Real-time ground track for satellite COSMOS 798.

In-orbit conjunctions

A list of the most updated potential collisions computed for object COSMOS 798.

Target Orbit TCA Probability of collision Miss distance Type
THORAD DELTA 1 DEB SSO 2025-06-23 00:37:20 0.0005308198 43.0 (m) DEBRIS

Associated space launch

Military communications satellites

COSMOS 798 was lifted into orbit during the mission ‘Kosmos-3M | Strela-1M 105-112’, on board a Kosmos-3M space rocket.

The launch took place on Jan. 28, 1976, 10:39 a.m. from 132/1 (132L).

For more information about the launch, click the button.

Launch to space Kosmos-3M | Strela-1M 105-112
Kosmos-3M | Strela-1M 105-112

Agency: N/A

Status: Launch Successful

Launch date: Jan. 28, 1976, 10:39 a.m. UTC

Rocket: Kosmos-3M

Launch pad: 132/1 (132L)

Location: Plesetsk Cosmodrome, Russian Federation

...

Latest news about this satellite

There are no fresh news available about this satellite. Check back as we update our databases every day.


Newsletter sign-up

Weekly statistics, charts and insights to help you stay on top of the space industry.